Regional Weather Roundup
Issued by NWS

Home | Current Version | Previous Version | Text Only | Print | Product List | Glossary On
Versions: 1 2 3 4 5 6 7 8 9 10 11 12 13 14 15 16 17 18 19 20 21 22 23 24 25 26 27 28 29 30 31 32 33 34 35 36 37 38 39 40 41 42 43 44 45 46 47 48 49 50
000
ASUS43 KTOP 280459
RWRKS

WEATHER ROUNDUP FOR KANSAS
NATIONAL WEATHER SERVICE GOODLAND KS
1200 AM CDT TUE APR 28 2015

NOTE:  "FAIR" INDICATES FEW OR NO CLOUDS BELOW 12,000 FEET WITH NO
SIGNIFICANT WEATHER AND/OR OBSTRUCTIONS TO VISIBILITY.

KSZ001>006-013>018-027>032-041>047-280600-
NORTHWEST KANSAS

CITY           SKY/WX    TMP DP  RH WIND       PRES   REMARKS
GOODLAND       PTCLDY    41  35  79 W5        30.25S
HAYS           PTCLDY    41  28  60 N7        30.19S
HILL CITY      PTCLDY    44  36  73 N7        30.21R
RUSSELL        PTCLDY    46  36  68 NW6       30.16S
$$

KSZ061>065-074>080-084>089-280600-
SOUTHWEST KANSAS

CITY           SKY/WX    TMP DP  RH WIND       PRES   REMARKS
DODGE CITY     MOCLDY    41  33  73 N6        30.18S
ELKHART          N/A     45  35  68 N5          N/A
GARDEN CITY    MOCLDY    37  30  75 N9        30.19S
GREAT BEND     MOCLDY    45  34  65 N7        30.17R
LIBERAL        MOCLDY    43  37  81 N7        30.20S
$$

KSZ066>073-081>083-090>101-280600-
SOUTHEAST KANSAS

CITY           SKY/WX    TMP DP  RH WIND       PRES   REMARKS
CHANUTE        CLOUDY    53  40  61 N6        30.09S
COFFEYVILLE    CLOUDY    54  40  59 N8        30.06S
HUTCHINSON     CLOUDY    50  37  61 N7        30.13F
MEDICINE LODGE   N/A     47  41  80 N3        30.12S
NEWTON         CLOUDY    50  36  57 NE7       30.14S
PARSONS        CLOUDY    55  41  59 NE5       30.08F
WICHITA INTL   CLOUDY    55  36  48 NE8       30.11S
WICHITA JABRA  CLOUDY    51  36  56 N8        30.11S
WINFIELD       CLOUDY    53  40  61 N7        30.10R
$$

KSZ007>012-019>026-033>040-048>060-102>105-280600-
NORTHEAST KANSAS

CITY           SKY/WX    TMP DP  RH WIND       PRES   REMARKS
CONCORDIA      PTCLDY    47  36  65 NW6       30.16S
EMPORIA        CLOUDY    49  39  68 NW3       30.11F
LAWRENCE       MOCLDY    44  39  82 N3        30.13R
MANHATTAN      PTCLDY    43  38  82 CALM      30.14R
OLATHE IND     MOCLDY    46  38  73 NE6       30.12S
OLATHE EXE     MOCLDY    54  36  50 NE3       30.11S
SALINA         MOCLDY    49  37  63 NW5       30.16R
TOPEKA BILLARD PTCLDY    47  40  76 CALM      30.14R
TOPEKA FORBES  MOCLDY    47  38  71 N3        30.12S
$$



USA.gov is the U.S. government's official web portal to all federal, state and local government web resources and services.